Location: Palo Alto
(37.4420°N, 122.1420°W)
Time: 14:30:39
(UTC-07:00)

ARGOS - Visible Passes

Search period start: 24 August 2016 00:00
Search period end: 03 September 2016 00:00
Orbit: 820 x 835 km, 98.7° (Epoch: 23 August)

Date Brightness Start Highest point End Pass type
(mag) Time Alt. Az. Time Alt. Az. Time Alt. Az.
24 Aug 4.4 21:31:03 23° ENE 21:31:28 24° ENE 21:35:39 10° NNE visible
24 Aug 4.4 23:12:35 36° WNW 23:12:35 36° WNW 23:16:30 10° NNW visible
25 Aug 4.8 21:12:24 16° ENE 21:13:09 16° ENE 21:16:21 10° NNE visible
25 Aug 3.8 22:53:55 51° NW 22:53:55 51° NW 22:58:10 10° NNW visible
26 Aug 5.2 20:53:44 10° ENE 20:54:54 11° ENE 20:56:08 10° NE visible
26 Aug 3.5 22:35:14 62° N 22:35:14 62° N 22:39:41 10° NNW visible
27 Aug 3.5 22:16:35 53° NE 22:16:35 53° NE 22:21:05 10° N visible
27 Aug 5.7 23:58:06 14° WNW 23:58:06 14° WNW 23:59:29 10° NW visible
28 Aug 3.8 21:57:55 39° NE 21:57:55 39° NE 22:02:20 10° N visible
28 Aug 5.3 23:39:26 20° WNW 23:39:26 20° WNW 23:41:55 10° NW visible
29 Aug 4.3 21:39:15 27° ENE 21:39:15 27° ENE 21:43:25 10° N visible
29 Aug 4.9 23:20:46 28° WNW 23:20:46 28° WNW 23:23:54 10° NNW visible
30 Aug 4.7 21:20:35 19° ENE 21:20:36 19° ENE 21:24:17 10° NNE visible
30 Aug 4.4 23:02:07 38° NW 23:02:07 38° NW 23:05:39 10° NNW visible
31 Aug 5.0 21:01:55 13° ENE 21:02:19 13° ENE 21:04:39 10° NE visible
31 Aug 4.0 22:43:27 46° NNW 22:43:27 46° NNW 22:47:14 10° NNW visible
01 Sep 3.8 22:24:48 47° N 22:24:48 47° N 22:28:40 10° N visible
02 Sep 6.0 00:06:19 10° WNW 00:06:19 10° WNW 00:06:22 10° WNW visible
02 Sep 4.0 22:06:08 39° NNE 22:06:08 39° NNE 22:09:59 10° N visible
02 Sep 5.7 23:47:40 15° WNW 23:47:40 15° WNW 23:49:09 10° NW visible
